VOZ912 YBBN-YSSY

Flight info

Callsign VOZ912
Flight time 1h 13m
Altitude 38000
Route BN H91 IGDAM H652 TESAT
Aircraft B737/M-SDE2E3FGHIRWXY/LB1

Departure

Time 2026-05-04 04:06
Airport Brisbane International Airport (YBBN)

Arrival

Time 2026-05-04 05:19
Airport Sydney Kingsford Smith International Airport (YSSY)
Time Latitude Longitude Altitude Speed Heading
2026-05-04 03:47 -27.38807 153.12003 22 ft 0 kts 279°
2026-05-04 03:54 -27.38810 153.12025 22 ft 4 kts 279°
2026-05-04 03:54 -27.38813 153.12048 24 ft 4 kts 265°
2026-05-04 03:54 -27.38814 153.12070 23 ft 4 kts 291°
2026-05-04 03:55 -27.38827 153.12091 24 ft 3 kts 332°
2026-05-04 03:55 -27.38849 153.12101 23 ft 4 kts 14°
2026-05-04 03:55 -27.38868 153.12088 22 ft 4 kts 43°
2026-05-04 03:55 -27.38873 153.12082 22 ft 0 kts 43°
2026-05-04 03:59 -27.38851 153.12106 21 ft 12 kts 44°
2026-05-04 04:00 -27.38788 153.12202 20 ft 16 kts 75°
2026-05-04 04:00 -27.38774 153.12316 21 ft 15 kts 45°
2026-05-04 04:00 -27.38683 153.12368 21 ft 15 kts 26°
2026-05-04 04:00 -27.38576 153.12427 20 ft 20 kts 26°
2026-05-04 04:01 -27.38454 153.12501 21 ft 20 kts 29°
2026-05-04 04:01 -27.38333 153.12571 20 ft 19 kts 25°
2026-05-04 04:01 -27.38213 153.12636 22 ft 19 kts 27°
2026-05-04 04:01 -27.38100 153.12703 22 ft 18 kts 28°
2026-05-04 04:02 -27.37990 153.12768 20 ft 17 kts 28°
2026-05-04 04:02 -27.37883 153.12828 20 ft 17 kts 25°
2026-05-04 04:02 -27.37780 153.12885 21 ft 16 kts 26°
2026-05-04 04:02 -27.37678 153.12943 20 ft 18 kts 27°
2026-05-04 04:03 -27.37543 153.13020 20 ft 25 kts 30°
2026-05-04 04:03 -27.37396 153.13112 20 ft 18 kts 24°
2026-05-04 04:03 -27.37288 153.13181 20 ft 17 kts 45°
2026-05-04 04:03 -27.37285 153.13274 20 ft 13 kts 117°
2026-05-04 04:04 -27.37331 153.13365 21 ft 14 kts 123°
2026-05-04 04:04 -27.37403 153.13431 21 ft 13 kts 162°
2026-05-04 04:04 -27.37485 153.13421 22 ft 0 kts 205°
2026-05-04 04:04 -27.37487 153.13420 21 ft 5 kts 205°
2026-05-04 04:05 -27.37724 153.13285 22 ft 72 kts 206°
2026-05-04 04:05 -27.38357 153.12922 23 ft 129 kts 208°
2026-05-04 04:05 -27.39301 153.12392 33 ft 172 kts 204°
2026-05-04 04:05 -27.40393 153.11788 522 ft 177 kts 204°
2026-05-04 04:06 -27.41570 153.11180 918 ft 192 kts 196°
2026-05-04 04:06 -27.42762 153.10663 1694 ft 179 kts 196°
2026-05-04 04:06 -27.43982 153.10417 2314 ft 187 kts 184°
2026-05-04 04:06 -27.45367 153.10247 2584 ft 216 kts 185°
2026-05-04 04:07 -27.46938 153.10043 2871 ft 237 kts 185°
2026-05-04 04:07 -27.48677 153.09801 3211 ft 261 kts 186°
2026-05-04 04:07 -27.50526 153.09528 3957 ft 266 kts 187°
2026-05-04 04:07 -27.52374 153.09243 4782 ft 270 kts 187°
2026-05-04 04:08 -27.54236 153.08949 5562 ft 274 kts 187°
2026-05-04 04:08 -27.56122 153.08647 6406 ft 277 kts 187°
2026-05-04 04:08 -27.57343 153.08449 6900 ft 280 kts 187°
2026-05-04 04:08 -27.59289 153.08131 7725 ft 284 kts 188°
2026-05-04 04:09 -27.61903 153.07701 8914 ft 289 kts 188°
2026-05-04 04:09 -27.63950 153.07363 9681 ft 298 kts 188°
2026-05-04 04:09 -27.65312 153.07138 10268 ft 299 kts 188°
2026-05-04 04:09 -27.68130 153.06670 10856 ft 325 kts 189°
2026-05-04 04:10 -27.69684 153.06411 10993 ft 343 kts 189°
2026-05-04 04:10 -27.72905 153.05876 11646 ft 360 kts 189°
2026-05-04 04:10 -27.75405 153.05462 12408 ft 365 kts 190°
2026-05-04 04:10 -27.77112 153.05179 12947 ft 367 kts 190°
2026-05-04 04:11 -27.79652 153.04757 13692 ft 372 kts 191°
2026-05-04 04:11 -27.82216 153.04226 14346 ft 376 kts 198°
2026-05-04 04:11 -27.84685 153.03261 15039 ft 377 kts 204°
2026-05-04 04:11 -27.87138 153.02169 15766 ft 380 kts 205°
2026-05-04 04:12 -27.89567 153.01070 16476 ft 384 kts 206°
2026-05-04 04:12 -27.92064 152.99945 17177 ft 388 kts 206°
2026-05-04 04:12 -27.94595 152.98819 17869 ft 392 kts 206°
2026-05-04 04:12 -27.97150 152.97692 18527 ft 396 kts 206°
2026-05-04 04:13 -27.99732 152.96559 19114 ft 399 kts 206°
2026-05-04 04:13 -28.02331 152.95422 19714 ft 402 kts 206°
2026-05-04 04:13 -28.04950 152.94275 20316 ft 405 kts 206°
2026-05-04 04:13 -28.07594 152.93116 20895 ft 409 kts 206°
2026-05-04 04:14 -28.10256 152.91946 21472 ft 412 kts 206°
2026-05-04 04:14 -28.12938 152.90757 22033 ft 415 kts 207°
2026-05-04 04:14 -28.15641 152.89552 22579 ft 419 kts 207°
2026-05-04 04:14 -28.18360 152.88339 23136 ft 421 kts 207°
2026-05-04 04:15 -28.21064 152.87132 23658 ft 425 kts 207°
2026-05-04 04:15 -28.23822 152.85901 24098 ft 427 kts 207°
2026-05-04 04:15 -28.26598 152.84663 24569 ft 429 kts 207°
2026-05-04 04:15 -28.29382 152.83420 25040 ft 431 kts 207°
2026-05-04 04:16 -28.32180 152.82171 25510 ft 433 kts 208°
2026-05-04 04:16 -28.34991 152.80915 25960 ft 436 kts 208°
2026-05-04 04:16 -28.37812 152.79654 26451 ft 437 kts 208°
2026-05-04 04:16 -28.40657 152.78381 26777 ft 442 kts 208°
2026-05-04 04:17 -28.43523 152.77098 27160 ft 444 kts 208°
2026-05-04 04:17 -28.46402 152.75809 27624 ft 445 kts 208°
2026-05-04 04:17 -28.49294 152.74514 28004 ft 448 kts 208°
2026-05-04 04:17 -28.52194 152.73213 28403 ft 450 kts 209°
2026-05-04 04:18 -28.55117 152.71901 28729 ft 453 kts 209°
2026-05-04 04:18 -28.58054 152.70584 29141 ft 454 kts 209°
2026-05-04 04:18 -28.60997 152.69263 29564 ft 456 kts 210°
2026-05-04 04:18 -28.63961 152.67931 29888 ft 459 kts 210°
2026-05-04 04:19 -28.66948 152.66588 30193 ft 462 kts 210°
2026-05-04 04:19 -28.69948 152.65239 30527 ft 463 kts 210°
2026-05-04 04:19 -28.72939 152.63894 30943 ft 461 kts 210°
2026-05-04 04:19 -28.75907 152.62560 31493 ft 456 kts 211°
2026-05-04 04:20 -28.78845 152.61239 32097 ft 451 kts 211°
2026-05-04 04:20 -28.81746 152.59931 32638 ft 447 kts 211°
2026-05-04 04:20 -28.84628 152.58626 33128 ft 443 kts 212°
2026-05-04 04:20 -28.87404 152.57173 33542 ft 436 kts 217°
2026-05-04 04:21 -28.90094 152.55598 33994 ft 432 kts 218°
2026-05-04 04:21 -28.92702 152.54015 34411 ft 428 kts 219°
2026-05-04 04:21 -28.95316 152.52414 34725 ft 427 kts 219°
2026-05-04 04:21 -28.97950 152.50804 34900 ft 430 kts 219°
2026-05-04 04:22 -29.00600 152.49195 35070 ft 432 kts 219°
2026-05-04 04:22 -29.03262 152.47595 35432 ft 430 kts 218°
2026-05-04 04:22 -29.05908 152.46017 35794 ft 428 kts 218°
2026-05-04 04:22 -29.08547 152.44445 36052 ft 428 kts 219°
2026-05-04 04:23 -29.11192 152.42868 36261 ft 429 kts 219°
2026-05-04 04:23 -29.13842 152.41283 36486 ft 429 kts 219°
2026-05-04 04:23 -29.16480 152.39701 36793 ft 428 kts 219°
2026-05-04 04:23 -29.19111 152.38136 37103 ft 426 kts 219°
2026-05-04 04:24 -29.21743 152.36569 37354 ft 426 kts 219°
2026-05-04 04:24 -29.24375 152.34996 37522 ft 427 kts 219°
2026-05-04 04:24 -29.27009 152.33420 37751 ft 427 kts 219°
2026-05-04 04:24 -29.29635 152.31848 38091 ft 424 kts 219°
2026-05-04 04:25 -29.34897 152.28694 38075 ft 428 kts 219°
2026-05-04 04:25 -29.40153 152.25541 38086 ft 425 kts 219°
2026-05-04 04:26 -29.45340 152.22425 38078 ft 422 kts 219°
2026-05-04 04:26 -29.50534 152.19305 38096 ft 423 kts 219°
2026-05-04 04:27 -29.55781 152.16141 38097 ft 427 kts 219°
2026-05-04 04:27 -29.61061 152.12956 38089 ft 430 kts 219°
2026-05-04 04:28 -29.66364 152.09758 38095 ft 431 kts 219°
2026-05-04 04:28 -29.71909 152.06940 38065 ft 447 kts 207°
2026-05-04 04:29 -29.77979 152.05341 38084 ft 448 kts 204°
2026-05-04 04:29 -29.84049 152.03840 38074 ft 444 kts 205°
2026-05-04 04:30 -29.90067 152.02301 38093 ft 442 kts 205°
2026-05-04 04:30 -29.96055 152.00731 38087 ft 441 kts 205°
2026-05-04 04:31 -30.02018 151.99162 38100 ft 446 kts 205°
2026-05-04 04:31 -30.08130 151.97554 38095 ft 453 kts 205°
2026-05-04 04:32 -30.14282 151.95942 38082 ft 454 kts 205°
2026-05-04 04:32 -30.20433 151.94327 38082 ft 453 kts 205°
2026-05-04 04:33 -30.26578 151.92710 38061 ft 452 kts 205°
2026-05-04 04:33 -30.32703 151.91044 38070 ft 446 kts 209°
2026-05-04 04:34 -30.38348 151.88568 38073 ft 434 kts 215°
2026-05-04 04:34 -30.43946 151.85863 38076 ft 433 kts 215°
2026-05-04 04:35 -30.49486 151.83215 38074 ft 435 kts 215°
2026-05-04 04:35 -30.55092 151.80579 38065 ft 435 kts 215°
2026-05-04 04:36 -30.60715 151.77951 38066 ft 435 kts 215°
2026-05-04 04:36 -30.66331 151.75325 38056 ft 435 kts 215°
2026-05-04 04:37 -30.77543 151.70069 38068 ft 434 kts 215°
2026-05-04 04:38 -30.83151 151.67435 38068 ft 434 kts 215°
2026-05-04 04:38 -30.88754 151.64799 38053 ft 434 kts 215°
2026-05-04 04:39 -30.94353 151.62158 38064 ft 434 kts 216°
2026-05-04 04:39 -30.99952 151.59516 38074 ft 434 kts 216°
2026-05-04 04:40 -31.05556 151.56874 38065 ft 435 kts 216°
2026-05-04 04:40 -31.11136 151.54236 38069 ft 435 kts 216°
2026-05-04 04:41 -31.16750 151.51578 38073 ft 436 kts 216°
2026-05-04 04:41 -31.22371 151.48914 38069 ft 435 kts 216°
2026-05-04 04:42 -31.27976 151.46254 38065 ft 435 kts 216°
2026-05-04 04:42 -31.33435 151.43659 38060 ft 435 kts 216°
2026-05-04 04:43 -31.39046 151.40992 38072 ft 435 kts 215°
2026-05-04 04:43 -31.44710 151.38433 38064 ft 437 kts 214°
2026-05-04 04:44 -31.50410 151.35921 38058 ft 438 kts 214°
2026-05-04 04:44 -31.56108 151.33394 38112 ft 437 kts 214°
2026-05-04 04:45 -31.61800 151.30854 38067 ft 438 kts 215°
2026-05-04 04:47 -31.81592 151.21973 38056 ft 435 kts 215°
2026-05-04 04:47 -31.87248 151.19435 38046 ft 435 kts 215°
2026-05-04 04:48 -31.92901 151.16886 38043 ft 435 kts 215°
2026-05-04 04:49 -32.07107 151.10510 37708 ft 444 kts 215°
2026-05-04 04:49 -32.10003 151.09213 37159 ft 445 kts 214°
2026-05-04 04:49 -32.12900 151.07916 36558 ft 443 kts 214°
2026-05-04 04:50 -32.15772 151.06626 35925 ft 442 kts 214°
2026-05-04 04:50 -32.18644 151.05332 35213 ft 443 kts 214°
2026-05-04 04:50 -32.21528 151.04029 34528 ft 444 kts 214°
2026-05-04 04:50 -32.24425 151.02719 33796 ft 446 kts 214°
2026-05-04 04:51 -32.27310 151.01422 33164 ft 443 kts 213°
2026-05-04 04:51 -32.30176 151.00133 32625 ft 438 kts 213°
2026-05-04 04:51 -32.33017 150.98852 32080 ft 436 kts 213°
2026-05-04 04:51 -32.35840 150.97575 31549 ft 433 kts 213°
2026-05-04 04:52 -32.38651 150.96300 31036 ft 434 kts 213°
2026-05-04 04:52 -32.41486 150.95011 30494 ft 439 kts 212°
2026-05-04 04:52 -32.44335 150.93720 29924 ft 438 kts 212°
2026-05-04 04:52 -32.47215 150.92513 29320 ft 442 kts 205°
2026-05-04 04:53 -32.50226 150.91844 28748 ft 451 kts 195°
2026-05-04 04:53 -32.53372 150.91742 28251 ft 456 kts 184°
2026-05-04 04:53 -32.56540 150.92197 27719 ft 458 kts 179°
2026-05-04 04:53 -32.59678 150.92810 27180 ft 455 kts 178°
2026-05-04 04:54 -32.62784 150.93438 26624 ft 450 kts 178°
2026-05-04 04:54 -32.65859 150.94041 26133 ft 445 kts 178°
2026-05-04 04:54 -32.68903 150.94617 25608 ft 441 kts 179°
2026-05-04 04:54 -32.71926 150.95169 25061 ft 438 kts 179°
2026-05-04 04:55 -32.74927 150.95708 24550 ft 434 kts 179°
2026-05-04 04:55 -32.77905 150.96243 24027 ft 432 kts 179°
2026-05-04 04:55 -32.80861 150.96771 23644 ft 424 kts 179°
2026-05-04 04:55 -32.83761 150.97280 23156 ft 419 kts 178°
2026-05-04 04:56 -32.86635 150.97797 22631 ft 415 kts 178°
2026-05-04 04:56 -32.89479 150.98303 22077 ft 411 kts 178°
2026-05-04 04:56 -32.92297 150.98801 21541 ft 408 kts 177°
2026-05-04 04:56 -32.95100 150.99297 21010 ft 406 kts 177°
2026-05-04 04:57 -32.97885 150.99790 20482 ft 403 kts 177°
2026-05-04 04:57 -33.00649 151.00282 19964 ft 401 kts 176°
2026-05-04 04:57 -33.03367 151.00765 19451 ft 398 kts 176°
2026-05-04 04:57 -33.06100 151.01252 18919 ft 396 kts 176°
2026-05-04 04:58 -33.08816 151.01736 18401 ft 390 kts 176°
2026-05-04 04:58 -33.11473 151.02213 17833 ft 381 kts 176°
2026-05-04 04:58 -33.14064 151.02677 17304 ft 373 kts 175°
2026-05-04 04:58 -33.16629 151.03134 16820 ft 371 kts 176°
2026-05-04 04:59 -33.18322 151.03434 16490 ft 371 kts 175°
2026-05-04 04:59 -33.20877 151.03891 16004 ft 372 kts 175°
2026-05-04 04:59 -33.23434 151.04347 15484 ft 370 kts 175°
2026-05-04 04:59 -33.25971 151.04820 15070 ft 366 kts 174°
2026-05-04 05:00 -33.28483 151.05303 14595 ft 365 kts 174°
2026-05-04 05:00 -33.30984 151.05788 14094 ft 364 kts 174°
2026-05-04 05:00 -33.35960 151.06743 13028 ft 358 kts 174°
2026-05-04 05:01 -33.38390 151.07211 12508 ft 350 kts 174°
2026-05-04 05:01 -33.40779 151.07670 12019 ft 346 kts 174°
2026-05-04 05:01 -33.43155 151.08127 11547 ft 345 kts 174°
2026-05-04 05:01 -33.45525 151.08581 11041 ft 345 kts 174°
2026-05-04 05:02 -33.47896 151.09036 10554 ft 345 kts 174°
2026-05-04 05:02 -33.50245 151.09488 10297 ft 336 kts 174°
2026-05-04 05:02 -33.52518 151.09927 10104 ft 326 kts 174°
2026-05-04 05:02 -33.54725 151.10353 9965 ft 315 kts 174°
2026-05-04 05:03 -33.56855 151.10764 9816 ft 303 kts 174°
2026-05-04 05:03 -33.58953 151.11167 9316 ft 306 kts 174°
2026-05-04 05:04 -33.65114 151.12368 8586 ft 294 kts 174°
2026-05-04 05:04 -33.67137 151.12769 8399 ft 295 kts 174°
2026-05-04 05:04 -33.69174 151.13170 8237 ft 296 kts 173°
2026-05-04 05:06 -33.79513 151.21829 7373 ft 298 kts 115°
2026-05-04 05:06 -33.80494 151.24022 7224 ft 298 kts 116°
2026-05-04 05:06 -33.81493 151.26231 7065 ft 294 kts 116°
2026-05-04 05:07 -33.82634 151.28185 6886 ft 288 kts 139°
2026-05-04 05:07 -33.84285 151.29379 6796 ft 278 kts 162°
2026-05-04 05:07 -33.86139 151.29946 6656 ft 271 kts 171°
2026-05-04 05:09 -34.00001 151.33481 5322 ft 251 kts 171°
2026-05-04 05:09 -34.01690 151.33938 5082 ft 247 kts 168°
2026-05-04 05:10 -34.03360 151.34389 4841 ft 244 kts 170°
2026-05-04 05:10 -34.05015 151.34813 4594 ft 242 kts 171°
2026-05-04 05:10 -34.06654 151.35234 4363 ft 239 kts 170°
2026-05-04 05:10 -34.08276 151.35655 4128 ft 238 kts 170°
2026-05-04 05:11 -34.09892 151.36077 3898 ft 236 kts 170°
2026-05-04 05:11 -34.11490 151.36495 3682 ft 234 kts 170°
2026-05-04 05:11 -34.13080 151.36912 3445 ft 235 kts 170°
2026-05-04 05:11 -34.14689 151.37332 3235 ft 238 kts 171°
2026-05-04 05:12 -34.16322 151.37673 3038 ft 235 kts 179°
2026-05-04 05:12 -34.17859 151.37340 2978 ft 218 kts 217°
2026-05-04 05:12 -34.18883 151.36115 2964 ft 205 kts 253°
2026-05-04 05:12 -34.19090 151.34491 2919 ft 194 kts 286°
2026-05-04 05:13 -34.18737 151.32925 2872 ft 194 kts 292°
2026-05-04 05:13 -34.18305 151.31379 2778 ft 194 kts 292°
2026-05-04 05:13 -34.17768 151.29901 2656 ft 191 kts 311°
2026-05-04 05:13 -34.16837 151.28902 2568 ft 184 kts 323°
2026-05-04 05:14 -34.15828 151.27974 2477 ft 183 kts 323°
2026-05-04 05:14 -34.14795 151.27031 2340 ft 186 kts 323°
2026-05-04 05:14 -34.13759 151.26084 2203 ft 187 kts 323°
2026-05-04 05:14 -34.12750 151.25125 2075 ft 181 kts 323°
2026-05-04 05:15 -34.11781 151.24178 2002 ft 179 kts 322°
2026-05-04 05:15 -34.10798 151.23236 1954 ft 181 kts 323°
2026-05-04 05:15 -34.09822 151.22305 1931 ft 177 kts 323°
2026-05-04 05:15 -34.08821 151.21433 1933 ft 178 kts 337°
2026-05-04 05:16 -34.07628 151.21052 1938 ft 176 kts 345°
2026-05-04 05:16 -34.06476 151.20706 1906 ft 161 kts 346°
2026-05-04 05:16 -34.05450 151.20423 1835 ft 145 kts 346°
2026-05-04 05:16 -34.04494 151.20170 1680 ft 139 kts 347°
2026-05-04 05:17 -34.03585 151.19933 1514 ft 129 kts 348°
2026-05-04 05:17 -34.02729 151.19709 1324 ft 121 kts 350°
2026-05-04 05:17 -34.01916 151.19498 1160 ft 117 kts 348°
2026-05-04 05:17 -34.01101 151.19263 942 ft 121 kts 345°
2026-05-04 05:18 -34.00275 151.18992 792 ft 123 kts 349°
2026-05-04 05:18 -33.99432 151.18771 652 ft 122 kts 351°
2026-05-04 05:18 -33.98610 151.18570 434 ft 122 kts 353°
2026-05-04 05:18 -33.97797 151.18382 304 ft 119 kts 353°
2026-05-04 05:19 -33.96988 151.18206 182 ft 121 kts 352°
2026-05-04 05:19 -33.96152 151.17984 38 ft 122 kts 350°
2026-05-04 05:19 -33.95421 151.17804 28 ft 88 kts 348°
2026-05-04 05:19 -33.94970 151.17686 27 ft 45 kts 347°
2026-05-04 05:20 -33.94734 151.17643 28 ft 31 kts 358°
2026-05-04 05:20 -33.94553 151.17669 29 ft 11 kts 13°
2026-05-04 05:20 -33.94486 151.17693 29 ft 10 kts 18°
2026-05-04 05:20 -33.94439 151.17712 29 ft 6 kts 18°
2026-05-04 05:21 -33.94428 151.17716 29 ft 0 kts 18°
2026-05-04 05:21 -33.94415 151.17721 29 ft 8 kts 18°
2026-05-04 05:21 -33.94358 151.17738 29 ft 9 kts
2026-05-04 05:22 -33.94288 151.17720 29 ft 13 kts 344°
2026-05-04 05:22 -33.94198 151.17693 28 ft 12 kts 346°
2026-05-04 05:22 -33.94171 151.17684 28 ft 0 kts 345°
2026-05-04 05:23 -33.94116 151.17668 28 ft 15 kts 347°
2026-05-04 05:23 -33.94015 151.17640 27 ft 15 kts 347°
2026-05-04 05:24 -33.93915 151.17613 28 ft 14 kts 349°
2026-05-04 05:24 -33.93819 151.17590 28 ft 14 kts 346°
2026-05-04 05:24 -33.93728 151.17566 28 ft 14 kts 348°
2026-05-04 05:24 -33.93595 151.17531 28 ft 23 kts 348°
2026-05-04 05:25 -33.93466 151.17528 29 ft 15 kts 49°
2026-05-04 05:25 -33.93409 151.17602 29 ft 10 kts 45°
2026-05-04 05:25 -33.93407 151.17684 29 ft 10 kts 99°
2026-05-04 05:25 -33.93411 151.17713 29 ft 0 kts 99°